x

9063079 - Marblehead, Oh (mrho1) Weather Station

11:54am - Fri 27th Mar 2015 All times are CDT. -5 hours from GMT.

  • Wind
    14mph, 18mph gusts
  • Air Temp 25°f
  • Sea Pressure 1017.4mb
  • 9063079 - Marblehead, Oh
  • 9063079 - Marblehead, Oh

More Historic Weather Station data

Upgrade to MSW Pro to gain access to the past 30 days of data for over 8000 Wavebouys and Weather Stations around the globe.

Join Pro

Comparision Forecast

View Surf forecast
   
Fri 03/27 11:54am 14 18 mph 1017.4mb 25f
11:48am 14 18 mph 1017.4mb 25f
11:42am 13 17 mph 1017.5mb 25f
11:36am 15 17 mph 1017.5mb 25f
11:30am 14 17 mph 1017.5mb 25f
11:24am 14 17 mph 1017.5mb 25f
11:18am 17 20 mph 1017.4mb 25f
11:12am 16 20 mph 1017.4mb 25f
11:06am 16 20 mph 1017.3mb 25f
11:00am 16 20 mph 1017.2mb 25f
10:54am 16 18 mph 1017.2mb 25f
10:48am 15 18 mph 1017.2mb 25f
10:42am 14 17 mph 1017.1mb 25f
10:36am 15 20 mph 1017.1mb 25f
10:30am 16 21 mph 1017.2mb 25f
10:24am 15 20 mph 1017.2mb 25f
10:18am 15 21 mph 1017.3mb 25f
10:12am 14 18 mph 1017.3mb 24f
10:06am 14 17 mph 1017.3mb 25f
9:54am 15 20 mph 1017.2mb 24f
9:48am 16 21 mph 1017.3mb 24f
9:42am 15 22 mph 1017.3mb 24f
9:36am 17 21 mph 1017.2mb 24f
9:30am 16 22 mph - -
9:24am 16 22 mph 1017.2mb 24f
9:18am 18 22 mph 1017.2mb 24f
9:12am 17 21 mph 1017.2mb 24f
9:06am 18 22 mph 1017.1mb 24f
9:00am 20 24 mph 1017mb 25f
8:54am 21 26 mph 1016.9mb 24f
8:48am 21 28 mph 1016.9mb -
8:42am 22 26 mph 1016.9mb 25f
8:36am 22 26 mph 1016.9mb 24f
8:30am 22 28 mph 1016.9mb 25f
8:24am 23 26 mph 1016.8mb 25f
8:18am 20 23 mph 1016.6mb 25f
8:12am 21 23 mph 1016.7mb 25f
8:06am 18 22 mph 1016.6mb 25f
8:00am 18 22 mph 1016.7mb 26f
7:54am 20 23 mph 1016.7mb 26f
7:48am 18 22 mph 1016.6mb 26f
7:42am 18 22 mph 1016.7mb 26f
7:36am 17 23 mph 1016.7mb 26f
7:30am 18 23 mph 1016.7mb -
7:24am 20 24 mph 1016.6mb 26f
7:18am 22 25 mph 1016.5mb 26f
7:12am 23 26 mph 1016.4mb 26f
7:06am 24 28 mph 1016.2mb 26f
7:00am 24 30 mph 1016.1mb 27f
6:54am 24 28 mph 1016mb 27f
6:48am 26 30 mph 1016mb 27f
6:42am 25 31 mph 1015.7mb 28f
6:36am 25 28 mph 1015.7mb 28f
6:30am 23 28 mph 1015.6mb 28f
6:24am 23 26 mph 1015.6mb 29f
6:18am 21 25 mph 1015.6mb -
6:12am 21 24 mph 1015.5mb 29f
6:06am 22 26 mph 1015.4mb 29f
6:00am 23 26 mph 1015.3mb 29f
5:54am 23 25 mph 1015.1mb 30f
5:48am 20 23 mph 1015.1mb 31f
5:42am 20 22 mph 1015.1mb 31f
5:36am 21 24 mph 1015mb 31f
5:30am 21 25 mph 1014.9mb 31f
5:24am 21 24 mph 1014.9mb 31f
5:18am 20 22 mph 1014.9mb 31f
5:12am 18 23 mph 1014.8mb 31f
5:06am 18 21 mph 1014.8mb 31f
5:00am 18 21 mph 1014.8mb 31f
4:54am 18 21 mph 1014.8mb 31f
4:48am 17 20 mph - 32f
4:42am 17 20 mph - 32f
4:36am 17 21 mph - 32f
4:30am 17 21 mph 1015mb 32f
4:24am 18 21 mph 1015mb 32f
4:18am 18 22 mph 1014.9mb 32f
4:12am 17 23 mph 1014.9mb 32f
4:06am 16 21 mph 1014.9mb 32f
4:00am 18 21 mph 1014.8mb -
3:54am 17 20 mph 1014.8mb -
3:48am 18 21 mph 1014.8mb -
3:42am 17 21 mph 1014.8mb 33f
3:36am 18 22 mph 1014.9mb 33f
3:30am 17 21 mph 1014.9mb 33f
3:24am 17 20 mph 1014.8mb 33f
3:18am 17 20 mph 1014.9mb 33f
3:12am 15 20 mph 1014.9mb 33f
3:06am 16 18 mph 1015mb 33f
3:00am 15 18 mph 1015.1mb 34f
2:54am 17 20 mph 1015.1mb 34f
2:48am 15 18 mph 1015.2mb 34f
2:42am 15 17 mph 1015.2mb 34f
2:36am 15 17 mph 1015.3mb 34f
2:30am 14 16 mph 1015.2mb 35f
2:24am 14 17 mph 1015.2mb 34f
2:18am 14 16 mph 1015.1mb -
2:12am 13 17 mph 1015mb 35f
2:06am 14 17 mph 1014.9mb 35f
2:00am  -  mph - 35f
1:54am 17 20 mph 1014.8mb 35f
1:48am 17 21 mph 1014.7mb -
1:36am 16 18 mph 1014.6mb 35f
1:18am 17 21 mph 1014.5mb 35f
1:06am 17 20 mph 1014.4mb 35f
12:54am 15 18 mph 1014.3mb 35f
12:42am 15 18 mph 1014.4mb 35f
12:36am 16 18 mph 1014.4mb 35f
12:30am 14 17 mph 1014.5mb 35f
12:24am 15 18 mph 1014.5mb 35f
12:18am 15 20 mph 1014.6mb 36f
12:12am 16 20 mph 1014.6mb 36f
12:06am 17 20 mph 1014.7mb 36f
12:00am 17 20 mph 1014.8mb 36f
Thu 03/26 11:54pm 15 18 mph 1014.8mb 35f
11:48pm 15 20 mph 1014.8mb 36f
11:42pm 16 18 mph 1014.8mb 36f
11:36pm 17 18 mph 1014.7mb 36f
11:30pm 18 21 mph 1014.7mb 36f
11:24pm 18 22 mph 1014.7mb 36f
11:18pm 21 22 mph 1014.6mb 36f
11:12pm 18 23 mph 1014.5mb 36f
11:06pm 20 22 mph 1014.5mb 36f
11:00pm 20 24 mph 1014.5mb 36f
10:54pm 21 24 mph 1014.4mb 37f
10:48pm 18 23 mph - -
10:42pm 20 22 mph 1014.4mb 36f
10:36pm 20 22 mph 1014.4mb 36f
10:30pm 20 22 mph 1014.3mb 37f
10:24pm 17 21 mph 1014.3mb 37f
10:18pm 11 15 mph 1014.4mb 37f
10:12pm 11 14 mph 1014.4mb 37f
10:06pm 13 16 mph 1014.4mb 37f
10:00pm 15 17 mph 1014.3mb 37f
9:54pm 11 13 mph 1014.4mb 36f
9:48pm 11 13 mph 1014.5mb -
9:42pm 10 14 mph 1014.5mb 36f
9:36pm 13 14 mph 1014.4mb 37f
9:30pm 14 15 mph 1014.4mb 36f
9:24pm 13 14 mph 1014.4mb 36f
9:18pm 13 15 mph 1014.3mb -
9:12pm 13 15 mph 1014.3mb 36f
9:06pm 13 15 mph 1014.2mb 36f
9:00pm 14 15 mph 1014.2mb -
8:54pm 15 16 mph 1014.2mb 37f
8:42pm 14 16 mph 1014.2mb 37f
8:36pm 14 16 mph 1014.2mb 37f
8:30pm 14 16 mph 1014.1mb 37f
8:24pm 14 16 mph 1014.2mb 37f
8:18pm 14 16 mph 1014.1mb 37f
8:12pm 14 16 mph 1014mb 37f
8:06pm 14 16 mph 1013.9mb 38f
8:00pm 11 14 mph 1013.9mb 38f
7:54pm 9 11 mph 1013.8mb 39f
7:48pm 7 9 mph - -
7:42pm 7 10 mph 1013.7mb 40f
7:36pm 5 7 mph 1013.6mb 40f
7:30pm 6 8 mph - -
7:24pm 5 7 mph 1013.5mb 40f
7:18pm 3 5 mph 1013.4mb 40f
7:12pm 2 5 mph 1013.4mb 40f
7:06pm 2 5 mph 1013.3mb 40f
7:00pm 2 5 mph 1013.2mb 40f
6:54pm 3 6 mph 1013.1mb 40f
6:48pm 3 5 mph 1012.9mb 40f
6:42pm 3 5 mph 1012.9mb 40f
6:36pm 3 5 mph 1012.9mb 40f
6:30pm 5 6 mph 1012.9mb 40f
6:24pm 3 5 mph 1012.8mb 40f
6:12pm 3 7 mph 1012.7mb 40f
6:06pm 5 7 mph 1012.6mb 40f
6:00pm 5 8 mph 1012.6mb 40f
5:54pm 6 8 mph 1012.8mb 40f
5:48pm 6 9 mph 1012.7mb 40f
5:42pm 7 8 mph 1012.6mb 40f
5:36pm 6 9 mph 1012.5mb 39f
5:30pm 8 10 mph 1012.6mb 40f
5:24pm 8 10 mph 1012.7mb 40f
5:18pm 9 10 mph 1012.7mb 40f
5:12pm 8 10 mph 1012.6mb 40f
5:06pm 8 10 mph 1012.4mb 40f
5:00pm 8 10 mph 1012.5mb 40f
4:54pm 8 10 mph 1012.4mb 40f
4:48pm 8 11 mph 1012.3mb 39f
4:42pm 9 10 mph 1012.3mb 39f
4:36pm 9 11 mph 1012.3mb 40f
4:30pm 9 13 mph 1012.3mb 40f
4:24pm 10 11 mph 1012.5mb 39f
4:18pm 10 13 mph 1012.4mb 39f
4:12pm 10 11 mph 1012.4mb 39f
4:06pm 10 11 mph 1012.2mb 39f
4:00pm 9 11 mph 1012.1mb 39f
3:54pm 9 10 mph 1012.1mb 39f
3:48pm 8 9 mph 1012mb 39f
3:42pm 7 9 mph 1012mb 39f
3:36pm 7 9 mph 1012mb 39f
3:30pm 5 7 mph 1011.9mb 39f
3:24pm 6 9 mph 1011.9mb 39f
3:18pm 6 9 mph - -
3:12pm 6 8 mph 1011.7mb 38f
3:06pm 5 7 mph 1011.8mb 38f
3:00pm 5 6 mph 1011.6mb 38f
2:54pm 5 7 mph 1011.6mb 37f
2:48pm 6 7 mph 1011.7mb 38f
2:42pm 3 7 mph 1011.6mb 38f
2:36pm 5 6 mph 1011.8mb 38f
2:30pm 5 7 mph 1011.8mb 37f
2:24pm 6 9 mph 1012mb 37f
2:18pm 6 8 mph 1011.9mb 37f
2:12pm 6 8 mph 1011.9mb 37f
2:06pm 6 10 mph 1011.9mb 37f
2:00pm 9 11 mph 1012mb 36f
1:54pm 6 9 mph 1011.9mb 37f
1:42pm 7 9 mph 1012.1mb 36f
1:36pm 6 8 mph 1012.1mb 36f
1:30pm 6 7 mph 1011.9mb 35f
1:24pm 5 7 mph 1011.9mb 35f
1:18pm 5 6 mph 1011.9mb 35f
1:12pm 5 6 mph 1011.8mb 35f
1:06pm 6
mph
1012mb 35f
1:00pm 6 7 mph 1012.1mb 35f
12:54pm 6
mph
1012.1mb 35f
12:48pm 5 6 mph 1012.3mb -
12:42pm 3 5 mph 1012.2mb 34f
12:36pm 3 5 mph 1012.2mb 35f
12:30pm 5 6 mph 1012.3mb 34f
12:24pm 5 6 mph 1012.4mb 34f
12:18pm 5 7 mph 1012.5mb -
12:12pm 7 8 mph 1012.7mb 34f
12:06pm 7 9 mph 1012.6mb 33f
12:00pm 8 9 mph 1012.7mb 33f
11:54am 6 9 mph 1012.5mb 33f
11:48am 8 10 mph 1012.8mb 33f
11:42am 8 14 mph 1012.7mb 33f
11:36am 11 14 mph 1012.9mb 33f
11:30am 11 13 mph 1013mb 33f
11:24am 11 13 mph 1013mb 33f
11:18am 9 10 mph 1012.9mb 33f
11:12am 8 9 mph 1012.8mb 33f
11:06am 7 8 mph 1012.9mb 33f
11:00am 7 8 mph 1012.8mb 33f
10:54am 7
mph
1012.8mb 33f
10:48am 6 7 mph 1012.8mb 33f
10:42am 6
mph
1012.7mb 33f
10:36am 5 6 mph 1012.7mb 33f
10:30am 5
mph
1012.7mb 33f
10:24am 3 5 mph 1012.6mb 33f
10:12am 5
mph
1012.8mb 33f
10:06am 5
mph
1012.9mb 33f
10:00am 5
mph
1012.9mb 33f
9:54am 5
mph
1013mb 33f
9:48am 5
mph
1012.9mb -
9:42am 5
mph
1013mb 33f
9:36am 5 6 mph 1013.1mb 33f
9:30am 5 6 mph 1013.1mb 33f
9:24am 5 6 mph 1013.1mb 33f
9:18am 6
mph
1013.2mb 33f
9:12am 6 7 mph 1013.2mb 33f
9:06am 6 7 mph 1013.3mb 33f
9:00am 6
mph
1013.2mb 33f
8:54am 6
mph
1013.1mb 33f
8:48am 5 6 mph 1013.2mb -
8:42am 5 6 mph 1013.3mb 33f
8:36am 5
mph
1013.2mb 33f
8:30am 5
mph
1013.2mb 33f
8:24am 5
mph
1013.1mb 33f
8:18am 5
mph
1013.1mb 33f
8:12am 5 6 mph 1013mb 33f
8:06am 5
mph
1013mb 33f
8:00am 5 6 mph 1013.1mb 34f
7:54am 5
mph
1013.1mb 34f
7:48am 5 6 mph 1013.3mb -
7:42am 5 6 mph 1013.5mb 34f
7:36am 5 6 mph 1013.5mb 34f
7:30am 5 6 mph 1013.7mb 35f
7:24am 3 6 mph 1013.8mb 35f
7:18am 6 7 mph 1013.9mb 35f
7:12am 7
mph
1013.9mb 35f
7:06am 8 9 mph 1013.8mb 35f
6:54am 8 9 mph 1013.9mb 36f
6:42am 7 8 mph 1014.1mb 36f
6:36am 6 7 mph 1014mb 36f
6:30am 5 6 mph 1013.9mb 36f
6:24am 5
mph
1014mb 36f
6:18am 5 6 mph 1013.9mb 36f
6:12am 5
mph
1014.1mb 36f
6:06am 3 5 mph 1014.2mb 36f
6:00am 3 5 mph 1014mb 37f
5:54am 2 3 mph 1014.1mb 37f
5:48am  -  1 mph 1014.4mb 37f
5:42am 1 2 mph 1014.6mb 37f
5:36am 2 3 mph 1014.2mb 37f
5:30am 2 3 mph 1014mb 38f
5:24am 1 2 mph 1014.2mb 38f
5:18am 2
mph
1014.4mb 38f
5:12am  -  1 mph 1013.8mb 37f
5:06am  -  2 mph 1013.4mb 37f
5:00am  -  mph 1013.2mb 37f
4:54am  -  mph 1013.5mb 38f
4:48am 1 2 mph - -
4:42am  -  3 mph 1014mb -
4:36am 3 6 mph 1014.1mb -
4:30am 6
mph
1013.8mb 39f
4:24am 5
mph
1014.1mb 39f
4:18am 2 3 mph 1014.5mb 39f
4:12am 1 2 mph 1014.5mb 39f
4:06am 1 3 mph 1014.1mb 38f
4:00am 2
mph
1013.9mb 38f
3:54am 2 3 mph 1014mb 38f
3:48am 3 5 mph 1013.9mb 38f
3:42am 5 7 mph 1014mb 38f
3:36am 6
mph
1013.9mb 38f
3:30am 3 5 mph 1014mb 38f
3:24am 5 6 mph 1013.9mb 37f
3:18am 6
mph
1014.1mb 38f
3:12am 6 8 mph 1014.3mb 37f
3:06am 8 9 mph 1014.3mb 38f
3:00am 9 11 mph 1014.5mb 38f
2:54am 10 11 mph 1014.6mb 38f
2:48am 10 11 mph 1014.7mb 39f
2:42am 10 11 mph 1015.1mb 40f
2:36am 6 8 mph 1015.4mb 40f
2:30am 3 6 mph 1015.5mb 41f
2:24am 3 5 mph 1015.5mb 42f
2:18am 2 3 mph 1015.6mb -
2:12am  -  3 mph 1015.7mb 43f
2:06am 2 3 mph 1015.8mb 43f
2:00am 3 6 mph 1015.9mb 43f
1:54am 2 6 mph 1016mb 43f
1:24am 7 10 mph 1016.6mb -
1:18am 7 9 mph 1016.4mb 44f
1:00am 8 11 mph 1016.6mb 44f
12:54am 8 13 mph 1016.6mb 44f
12:48am 9 13 mph 1016.7mb 44f
12:42am 8 11 mph 1016.7mb 44f
12:36am 9 11 mph 1016.7mb 44f
12:30am 9 13 mph 1016.5mb 44f
12:24am 7 11 mph 1016.3mb 44f
12:18am 9 13 mph 1016.4mb -
12:12am 8 10 mph 1016.4mb 44f
12:06am 7 10 mph 1016.2mb 45f
12:00am 5 9 mph 1016.1mb 44f
Wed 03/25 11:54pm 6 11 mph 1016.2mb 45f
11:48pm 7 10 mph 1016.2mb 45f
11:42pm 8 14 mph 1016.2mb 45f
11:36pm 7 10 mph 1016.3mb 45f
11:30pm 6 9 mph 1016.4mb 45f
11:24pm 5 9 mph 1016.4mb 45f
11:18pm 3 9 mph 1016.4mb 45f
11:12pm 6 9 mph 1016.4mb 45f
11:06pm 6 10 mph 1016.4mb 45f
11:00pm 6 10 mph 1016.5mb 45f
10:54pm 6 9 mph 1016.5mb 45f
10:48pm 6 9 mph 1016.5mb 45f
10:42pm 3 11 mph 1016.4mb 45f
10:36pm 5 10 mph 1016.6mb 45f
10:30pm 5 8 mph 1016.5mb 45f
10:24pm 5 9 mph 1016.5mb 45f
10:18pm 5 8 mph - -
10:12pm 6 9 mph 1016.6mb 46f
10:06pm 5 9 mph 1016.5mb 46f
10:00pm 3 8 mph 1016.5mb 46f
9:54pm 5 10 mph 1016.6mb 46f
9:42pm 5 9 mph 1016.7mb 46f
9:36pm 5 10 mph 1016.5mb 46f
9:30pm 6 10 mph 1016.4mb 46f
9:24pm 6 10 mph 1016.5mb 46f
9:18pm 6 10 mph 1016.5mb 46f
9:12pm 5 9 mph 1016.5mb 45f
9:06pm 5 10 mph 1016.7mb 45f
9:00pm 6 9 mph 1016.7mb 45f
8:54pm 6 10 mph 1016.7mb 45f
8:48pm 7 9 mph 1016.8mb 46f
8:42pm 5 9 mph 1017mb 46f
8:36pm 6 10 mph 1017mb 46f
8:30pm 6 14 mph 1016.9mb 46f
8:24pm 6 9 mph 1017mb 46f
8:18pm 5 9 mph 1016.9mb -
8:12pm 6 10 mph 1017.1mb 46f
8:06pm 5 9 mph 1017mb 46f
8:00pm 5 10 mph 1016.9mb 46f
7:54pm 5 9 mph 1016.9mb 46f
7:48pm 6 9 mph 1016.9mb 46f
7:42pm 5 9 mph 1017mb 46f
7:36pm 6 9 mph 1017mb 46f
7:30pm 6 13 mph 1016.9mb 46f
7:24pm 5 9 mph 1016.8mb 46f
7:18pm 5 11 mph 1016.8mb -
7:12pm 7 9 mph 1016.7mb 46f
7:06pm 7 13 mph 1016.7mb 47f
7:00pm 6 10 mph 1016.7mb 47f
6:54pm 7 13 mph 1016.7mb 47f
6:48pm 5 14 mph 1016.7mb 48f
6:42pm 6 13 mph 1016.8mb 48f
6:36pm 7 14 mph 1016.9mb 48f
6:30pm 8 15 mph 1016.8mb 49f
6:24pm 6 16 mph 1016.8mb 49f
6:12pm 9 13 mph 1016.8mb 49f
6:06pm 8 21 mph 1016.7mb 49f
6:00pm 9 22 mph 1016.7mb 49f
5:54pm 9 14 mph 1016.6mb 49f
5:48pm 8 15 mph 1016.4mb 49f
5:42pm 8 17 mph 1016.2mb 50f
5:36pm 9 21 mph 1016.2mb 50f
5:30pm 7 16 mph 1016.2mb 50f
5:24pm 10 18 mph 1016.2mb 50f
5:18pm 10 18 mph 1016.1mb 51f
5:12pm 10 18 mph 1016mb 51f
5:06pm 11 17 mph 1016mb 51f
5:00pm 8 18 mph 1015.9mb 52f
4:54pm 11 18 mph 1015.9mb 52f
4:48pm 7 17 mph - -
4:42pm 10 21 mph 1015.9mb 51f
4:36pm 13 21 mph 1015.9mb 52f
4:30pm 9 24 mph 1015.9mb 52f
4:24pm 16 28 mph 1016mb 51f
4:18pm 8 24 mph 1015.9mb 52f
4:12pm 13 21 mph 1016mb 52f
4:06pm 10 23 mph 1015.9mb 51f
4:00pm 14 24 mph 1015.8mb 52f
3:54pm 14 24 mph 1015.7mb 52f
3:48pm 16 26 mph 1015.6mb 51f
3:42pm 17 26 mph 1015.8mb 51f
3:36pm 10 22 mph 1015.6mb 51f
3:30pm 15 29 mph 1015.6mb 51f
3:24pm 17 26 mph 1015.6mb 51f
3:18pm 15 25 mph 1015.5mb 51f
3:12pm 17 29 mph 1015.6mb 51f
3:06pm 16 31 mph 1015.6mb 50f
3:00pm 16 26 mph 1015.5mb 50f
2:54pm 14 30 mph 1015.3mb 50f
2:48pm 18 30 mph - -
2:42pm 17 29 mph 1015.3mb 51f
2:36pm 16 33 mph 1015.2mb 51f
2:30pm 17 30 mph 1015mb 51f
2:24pm 15 28 mph 1014.9mb 51f
2:18pm 10 24 mph 1014.7mb -
2:12pm 9 23 mph 1014.5mb 52f
2:06pm 15 29 mph 1014.5mb 52f
2:00pm 18 29 mph 1014.5mb 52f
1:54pm 16 25 mph 1014.3mb 52f
1:48pm 17 31 mph 1014.2mb 52f
1:42pm 13 29 mph 1014.3mb 52f
1:36pm 16 23 mph 1014.5mb 51f
1:30pm 13 22 mph 1014.2mb 51f
1:24pm 15 21 mph 1014.2mb 51f
1:12pm 16 25 mph 1014.1mb 51f
1:06pm 14 22 mph 1013.9mb 51f
12:54pm 15 22 mph 1013.8mb 51f
12:48pm 13 31 mph 1013.6mb 51f
12:42pm 13 22 mph 1013.7mb 51f
12:36pm 11 21 mph 1013.6mb 52f
12:30pm 13 23 mph 1013.4mb 52f
12:24pm 8 25 mph 1013.3mb 51f
12:18pm 9 18 mph 1013.2mb 52f
12:12pm 10 17 mph 1013.1mb 52f
12:06pm 9 21 mph 1013.1mb 52f
12:00pm 7 14 mph 1013mb 52f
11:54am 10 23 mph 1012.8mb 51f
11:48am 10 22 mph 1012.9mb 51f
11:42am 10 22 mph 1012.9mb 51f
11:36am 9 15 mph 1012.7mb 51f
11:30am 11 23 mph 1012.6mb 51f
11:24am 9 16 mph 1012.6mb 51f
11:18am 11 26 mph 1012.5mb 51f
11:12am 10 21 mph 1012.5mb 51f
11:06am 10 21 mph 1012.4mb 51f
11:00am 7 23 mph 1012.3mb 51f
10:54am 10 17 mph 1012.3mb 51f
10:48am 9 15 mph 1012.2mb 51f
10:42am 6 20 mph 1012.1mb 51f
10:36am 10 17 mph 1012.1mb 51f
10:30am 9 17 mph 1012mb 51f
10:24am 7 14 mph 1012mb 50f
10:18am 10 16 mph 1011.9mb 49f
10:12am 9 14 mph 1011.8mb 49f
10:06am 6 14 mph 1011.9mb 49f
10:00am 8 18 mph 1011.8mb 49f
9:54am 9 16 mph 1011.8mb 49f
9:48am 10 16 mph 1011.9mb 47f
9:42am 9 16 mph 1012mb 47f
9:36am 6 14 mph 1011.8mb 47f
9:30am 8 13 mph 1011.9mb 47f
9:24am 9 16 mph 1012mb 47f
9:18am 10 16 mph - -
9:12am 8 16 mph 1011.9mb 47f
9:06am 9 18 mph 1012mb 46f
9:00am 8 15 mph 1012mb 45f
8:54am 9 14 mph 1012mb 44f
8:48am 5 10 mph 1012.2mb 44f
8:42am 7 14 mph 1012.1mb 43f
8:36am 8 16 mph 1012.1mb 42f
8:30am 8 16 mph 1012.1mb 42f
8:24am 8 14 mph 1012.2mb 42f
8:18am 6 11 mph - -
8:12am 8 15 mph 1012.4mb 42f
8:06am 9 16 mph 1012.7mb 42f
8:00am 8 13 mph 1012.7mb 41f
7:54am 7 11 mph 1012.9mb 40f
7:48am 6 14 mph 1013.2mb 40f
7:42am 6 11 mph 1013.4mb 40f
7:36am 3 9 mph 1013.7mb 39f
7:30am 3 8 mph 1013.8mb 39f
7:24am 7 9 mph 1013.5mb 39f
7:18am 3 9 mph 1013.6mb -
7:12am 5 13 mph 1013.9mb 39f
7:06am 5 8 mph 1014.3mb 39f
7:00am 5 7 mph 1014.7mb 37f
6:54am 3 8 mph 1014.9mb 37f
6:48am 5 10 mph 1015mb 37f
6:42am 6 8 mph 1015.1mb 37f
6:36am 5 9 mph 1014.8mb 37f
6:30am 5 8 mph 1014.9mb 37f
6:24am 6 9 mph 1015.2mb 37f
6:18am 5 7 mph 1015.3mb 37f
6:12am 5 9 mph 1015.4mb 37f
6:06am 5 9 mph 1015.5mb 37f
6:00am 6 14 mph 1015.5mb 37f
5:54am 8 14 mph 1015.1mb 37f
5:48am 8 13 mph 1015.4mb 36f
5:42am 8 14 mph 1015.7mb 36f
5:36am 8 13 mph 1015.9mb 36f
5:30am 9 14 mph 1016.1mb 36f
5:24am 8 11 mph 1016.3mb 35f
5:18am 7 14 mph 1016.5mb -
5:12am 9 14 mph 1016.6mb 36f
5:06am 7 13 mph 1016.9mb 35f
5:00am 10 14 mph 1016.6mb 36f
4:54am 9 14 mph 1016.5mb 35f
4:42am 10 15 mph 1016.7mb -
4:36am 7 13 mph 1017.1mb -
4:30am 9 14 mph 1017mb 35f
4:24am 8 14 mph 1017mb 35f
4:18am 10 14 mph 1017mb 35f
4:12am 8 15 mph 1017.3mb 35f
4:06am 11 15 mph 1017.3mb 35f
4:00am 11 14 mph 1017.5mb 35f
3:54am 11 14 mph 1017.8mb 35f
3:48am 10 14 mph 1018mb -
3:42am 9 14 mph 1018.3mb 34f
3:36am 9 13 mph 1018.5mb 34f
3:30am 9 14 mph 1018.7mb 34f
3:24am 8 11 mph 1018.9mb 34f
3:18am 8 10 mph 1019mb 34f
3:12am 6 8 mph 1019.3mb 34f
3:06am 7 9 mph 1019.6mb 34f
3:00am 5 7 mph 1019.7mb 34f
2:54am 6 8 mph 1019.8mb 34f
2:48am 6 10 mph 1019.7mb 34f
2:42am 8 10 mph 1019.7mb 34f
2:36am 6 8 mph 1019.8mb 34f
2:30am 6 10 mph 1019.9mb 33f
2:24am 7 10 mph 1020mb 33f
2:18am 7 9 mph 1020.3mb 33f
2:12am 7 9 mph 1020.5mb 33f
2:06am 7 10 mph 1020.6mb 33f
2:00am 6 9 mph 1020.9mb 33f
1:54am 8 10 mph 1020.8mb 33f
1:48am 7 10 mph 1021mb -
1:42am 7 10 mph 1021.1mb 33f
1:36am 6 8 mph 1021.1mb 33f
1:30am 7 11 mph 1021.2mb 33f
1:24am 7 11 mph 1021.2mb 33f
1:18am 8 10 mph 1021.2mb 33f
1:12am 6 10 mph 1021.4mb 32f
1:06am 7 10 mph 1021.4mb 32f
1:00am 9 10 mph 1021.4mb 33f
12:54am 6 9 mph 1021.6mb 32f
12:48am 7 10 mph 1021.6mb 32f
12:42am 7 11 mph 1021.7mb 32f
12:36am 8 9 mph 1021.7mb 32f
12:30am 8 10 mph 1022mb 32f
12:24am 7 11 mph 1022mb 32f
12:18am 7 10 mph 1022.1mb 32f
12:12am 9 13 mph 1022.1mb 32f
12:06am 10 13 mph 1022.2mb 32f
12:00am 10 11 mph 1022.4mb 32f
Tue 03/24 11:54pm 9 11 mph 1022.5mb 32f
11:48pm 7 13 mph 1022.5mb 32f
11:42pm 10 14 mph 1022.5mb 32f
11:36pm 10 13 mph 1022.6mb 32f
11:30pm 11 14 mph 1022.6mb 32f
11:24pm 10 14 mph 1022.9mb 32f
11:18pm 11 14 mph 1022.9mb 32f
11:12pm 11 14 mph 1023mb 32f
11:06pm 9 14 mph 1023.1mb 32f
11:00pm 8 10 mph 1023.3mb 32f
10:54pm 10 14 mph 1023.4mb 32f
10:48pm 8 13 mph 1023.4mb 32f
10:42pm 10 16 mph 1023.3mb 32f
10:36pm 11 15 mph 1023.3mb 32f
10:30pm 13 14 mph 1023.4mb 32f
10:24pm 11 15 mph 1023.6mb 32f
10:18pm 14 15 mph 1023.6mb 32f
10:12pm 10 15 mph 1023.8mb 32f
10:06pm 10 16 mph 1023.8mb 32f
10:00pm 11 15 mph 1023.8mb 32f
9:54pm 15 17 mph 1023.9mb 32f
9:48pm 11 15 mph 1024.2mb 32f
9:42pm 13 15 mph 1024.2mb 31f
9:36pm 13 16 mph 1024.3mb 31f
9:30pm 13 17 mph 1024.2mb 31f
9:24pm 15 18 mph 1024.1mb 31f
9:18pm 13 16 mph 1024.2mb 31f
9:12pm 11 16 mph 1024.3mb 31f
9:06pm 13 17 mph 1024.5mb 31f
9:00pm 14 16 mph 1024.5mb 31f
8:54pm 13 17 mph 1024.6mb 31f
8:48pm 13 15 mph 1024.7mb 31f
8:42pm 13 17 mph 1024.7mb 31f
8:36pm 13 16 mph 1024.8mb 31f
8:30pm 11 16 mph 1025mb 31f
8:24pm 13 16 mph 1024.9mb 31f
8:18pm 13 16 mph 1024.9mb 31f
8:12pm 14 15 mph 1025mb 31f
8:06pm 14 15 mph 1025mb 31f
8:00pm 11 14 mph 1025.2mb 31f
7:54pm 11 14 mph 1025.2mb 31f
7:48pm 11 14 mph 1025.3mb 31f
7:42pm 11 14 mph 1025.3mb 31f
7:36pm 10 14 mph 1025.3mb 30f
7:30pm 9 14 mph 1025.5mb 30f
7:24pm 10 15 mph 1025.4mb 30f
7:18pm 11 14 mph 1025.4mb 30f
7:12pm 11 14 mph 1025.3mb 30f
7:06pm 10 14 mph 1025.4mb 30f
7:00pm 10 13 mph 1025.5mb 30f
6:54pm 10 14 mph 1025.5mb 30f
6:48pm 9 14 mph 1025.5mb 30f
6:42pm 13 14 mph 1025.5mb 30f
6:36pm 10 14 mph 1025.6mb 30f
6:30pm 10 15 mph 1025.6mb 30f
6:24pm 13 14 mph 1025.6mb 30f
6:18pm 10 14 mph 1025.7mb 30f
6:12pm 13 14 mph 1025.9mb 29f
6:06pm 11 14 mph 1025.9mb 29f
6:00pm 10 14 mph 1026mb 30f
5:54pm 11 13 mph 1025.9mb 29f
5:48pm 10 13 mph 1025.9mb 30f
5:42pm 10 11 mph 1025.9mb 29f
5:36pm 10 13 mph 1025.9mb 29f
5:30pm 9 13 mph 1026mb 30f
5:24pm 10 14 mph 1026mb 29f
5:18pm 11 13 mph 1026mb 29f
5:12pm 10 11 mph 1026.1mb 29f
5:06pm 8 11 mph 1026.1mb 30f
5:00pm 10 11 mph 1026.1mb 29f
4:54pm 9 11 mph 1026.1mb 29f
4:48pm 9 11 mph 1026.2mb 29f
4:42pm 7 9 mph 1026.3mb 29f
4:36pm 10 13 mph 1026.3mb 29f
4:30pm 10 11 mph 1026.4mb 29f
4:24pm 10 13 mph 1026.4mb 29f
4:18pm 9 13 mph 1026.5mb 29f
4:12pm 9 13 mph 1026.6mb 29f
4:06pm 9 13 mph 1026.6mb 29f
4:00pm 9 14 mph 1026.6mb 29f
3:54pm 9 13 mph 1026.7mb 29f
3:48pm 10 14 mph 1026.8mb 28f
3:42pm 9 13 mph 1027mb 28f
3:36pm 10 14 mph 1026.9mb 28f
3:30pm 10 14 mph 1027mb 28f
3:24pm 10 14 mph 1027mb 28f
3:18pm 11 14 mph 1027mb 28f
3:12pm 11 14 mph 1027mb 28f
3:06pm 11 14 mph 1027mb 28f
3:00pm 11 14 mph 1027mb 28f
2:54pm 11 14 mph 1027.1mb 28f
2:48pm 11 14 mph 1027.1mb 28f
2:42pm 11 15 mph 1027.2mb 28f
2:36pm 11 14 mph 1027.2mb 28f
2:30pm 11 14 mph 1027.3mb 28f
2:24pm 11 13 mph 1027.4mb 28f
2:18pm 11 14 mph 1027.4mb 28f
2:12pm 11 13 mph 1027.5mb 27f
2:06pm 11 14 mph 1027.6mb 27f
2:00pm 11 14 mph 1027.5mb 27f
1:54pm 11 14 mph 1027.6mb 27f
1:48pm 11 14 mph 1027.7mb 27f
1:42pm 10 13 mph 1027.8mb 27f
1:36pm 10 14 mph 1027.9mb 27f
1:30pm 10 13 mph 1027.8mb 27f
1:24pm 10 13 mph 1028mb 27f
1:18pm 10 14 mph 1028.2mb 27f
1:12pm 11 13 mph 1028.3mb 26f
1:06pm 9 13 mph 1028.4mb 26f
1:00pm 9 13 mph 1028.4mb 26f
12:54pm 9 13 mph 1028.5mb 26f
12:48pm 9 13 mph 1028.6mb 26f
12:42pm 11 14 mph 1028.5mb 26f
12:36pm 10 13 mph 1028.6mb 26f
12:30pm 10 14 mph 1028.6mb 26f
12:24pm 11 13 mph 1028.6mb 26f
12:18pm 11 14 mph 1028.6mb 26f
12:12pm 10 13 mph 1028.6mb 26f
12:06pm 10 13 mph 1028.7mb 26f
12:00pm 10 13 mph 1028.6mb 26f
11:54am 10 15 mph 1028.5mb 26f
11:48am 10 15 mph 1028.4mb 26f
11:42am 13 14 mph 1028.4mb 26f
11:36am 11 14 mph 1028.4mb 26f
11:30am 10 14 mph 1028.5mb 26f
11:24am 10 14 mph 1028.6mb 26f
11:18am 9 13 mph 1028.7mb 26f
11:12am 9 14 mph 1028.8mb 26f
11:06am 11 14 mph 1028.8mb 25f
11:00am 11 13 mph 1028.8mb 25f
10:54am 11 15 mph 1028.8mb 25f
10:48am 10 13 mph 1028.8mb 26f
10:42am 9 14 mph 1028.8mb 26f
10:36am 10 11 mph 1028.7mb 26f
10:30am 10 13 mph 1028.7mb 26f
10:24am 11 14 mph 1028.6mb 26f
10:18am 13 16 mph 1028.5mb 26f
10:12am 11 16 mph 1028.4mb 26f
10:06am 10 15 mph 1028.4mb 26f
10:00am 11 15 mph 1028.3mb 25f
9:54am 11 15 mph 1028.3mb 25f
9:48am 13 15 mph 1028.2mb 26f
9:42am 13 16 mph 1028.2mb 25f
9:36am 11 15 mph 1028.2mb 25f
9:30am 14 16 mph 1028.2mb 25f
9:24am 13 16 mph 1028.2mb 25f
9:18am 14 17 mph 1028.2mb 25f
9:12am 14 17 mph 1028.2mb 25f
9:06am 13 16 mph 1028.2mb 25f
9:00am 13 17 mph 1028.3mb 25f
8:54am 13 18 mph 1028.3mb 25f
8:48am 13 16 mph 1028.3mb 25f
8:42am 14 16 mph 1028.3mb 25f
8:36am 14 18 mph 1028.2mb 25f
8:30am 15 17 mph 1028.2mb 25f
8:24am 14 17 mph 1028.3mb 25f
8:18am 13 16 mph 1028.1mb 25f
8:12am 14 17 mph 1028.1mb 25f
8:06am 15 17 mph 1028mb 25f
8:00am 14 16 mph 1028mb 25f
7:54am 14 16 mph 1028.1mb 25f
7:48am 14 17 mph 1028mb 25f
7:42am 14 18 mph 1027.9mb 25f
7:36am 14 17 mph 1027.8mb 25f
7:30am 15 17 mph 1027.8mb 25f
7:24am 14 16 mph 1027.8mb 25f
7:18am 14 17 mph 1027.8mb 25f
7:12am 14 15 mph 1027.8mb 25f
7:06am 13 15 mph 1027.9mb 25f
7:00am 14 16 mph 1027.8mb 25f
6:54am 13 14 mph 1027.7mb 25f
6:48am 13 16 mph 1027.6mb 25f
6:42am 13 16 mph 1027.6mb 25f
6:36am 13 16 mph 1027.5mb 25f
6:30am 13 15 mph 1027.5mb 25f
6:24am 11 14 mph 1027.5mb 25f
6:18am 13 14 mph 1027.4mb 25f
6:12am 13 15 mph 1027.5mb 25f
6:06am 13 15 mph 1027.4mb 25f
6:00am 13 15 mph 1027.3mb 25f
5:54am 11 16 mph 1027.3mb 26f
5:48am 14 17 mph 1027.2mb 25f
5:42am 11 15 mph 1027.2mb 26f
5:36am 13 16 mph 1027.1mb 26f
5:30am 14 17 mph 1027mb 25f
5:24am 15 17 mph 1026.9mb 25f
5:18am 15 17 mph 1026.8mb 25f
5:12am 14 16 mph 1026.8mb 25f
5:06am 14 17 mph 1026.7mb 25f
5:00am  -  mph 1026.7mb 25f
4:54am 14 17 mph 1026.7mb 25f
4:48am  -  mph 1026.6mb -
4:42am 14 17 mph 1026.6mb -
4:36am 15 17 mph 1026.6mb -
4:30am 15 17 mph 1026.6mb 25f
4:24am 15 18 mph 1026.6mb 25f
4:18am 13 16 mph 1026.6mb -
4:12am 14 16 mph 1026.7mb 25f
4:06am 14 16 mph 1026.7mb 25f
4:00am 13 16 mph 1026.9mb 25f
3:54am 14 18 mph 1026.8mb 25f
3:48am 14 16 mph 1026.7mb 25f
3:42am 15 20 mph 1026.7mb 25f
3:36am 14 17 mph 1026.7mb 25f
3:30am 14 18 mph 1026.7mb 25f
3:24am 15 17 mph 1026.7mb 25f
3:18am 14 16 mph 1026.6mb 25f
3:12am 14 16 mph 1026.7mb 25f
3:06am 14 17 mph 1026.6mb 25f
3:00am 13 16 mph 1026.6mb 25f
2:54am 13 16 mph 1026.6mb 25f
2:48am 14 17 mph 1026.6mb 25f
2:42am 14 17 mph 1026.6mb 25f
2:36am 14 16 mph 1026.6mb 25f
2:30am 14 16 mph 1026.6mb 25f
2:24am 14 17 mph 1026.6mb 25f
2:18am 13 17 mph 1026.6mb 25f
2:12am 14 17 mph 1026.6mb 25f
2:06am 14 17 mph 1026.6mb 25f
2:00am 14 17 mph 1026.6mb 25f
1:54am 14 17 mph 1026.7mb 25f
1:48am 15 18 mph 1026.7mb 25f
1:42am 14 16 mph 1026.7mb 26f
1:36am 14 22 mph 1026.7mb 25f
1:30am 13 16 mph 1026.7mb 25f
1:24am 14 16 mph 1026.8mb 25f
1:18am 13 16 mph 1026.9mb 25f
1:12am 13 16 mph 1027mb 26f
1:06am 11 15 mph 1027mb 26f
1:00am 14 15 mph 1027mb 26f
12:54am 13 15 mph 1026.9mb 26f
12:48am 11 14 mph 1027mb 26f
12:42am 11 15 mph 1026.9mb 26f
12:36am 13 15 mph 1026.9mb 26f
12:30am 14 18 mph 1026.6mb 26f
12:24am 14 16 mph 1026.4mb 26f
12:18am 14 16 mph 1026.6mb 26f
12:12am 13 16 mph 1026.7mb 26f
12:06am 14 15 mph 1026.7mb 26f
12:00am 11 15 mph 1026.9mb 26f
Mon 03/23 11:54pm 13 15 mph 1027.1mb 26f
11:48pm 11 14 mph 1027.1mb 26f
11:42pm 13 16 mph 1027mb 26f
11:36pm 13 16 mph 1027mb 26f
11:30pm 14 17 mph 1026.8mb 26f
11:24pm 13 18 mph 1026.7mb 26f
11:18pm 14 16 mph 1026.7mb 26f
11:12pm 14 17 mph 1026.7mb 26f
11:06pm 15 17 mph 1026.7mb 26f
11:00pm 14 16 mph 1026.8mb 26f
10:54pm 13 16 mph 1026.9mb 26f
10:48pm 14 17 mph 1026.8mb 26f
10:42pm 14 16 mph 1026.9mb 26f
10:36pm 14 17 mph 1026.8mb 26f
10:30pm 15 17 mph 1026.8mb 26f
10:24pm 15 17 mph 1026.7mb 26f
10:18pm 14 17 mph 1026.8mb 26f
10:12pm 13 17 mph 1026.7mb 26f
10:06pm 11 17 mph 1026.7mb 27f
10:00pm 11 15 mph 1026.8mb 27f
9:54pm 13 15 mph 1026.8mb 26f
9:48pm 13 16 mph 1026.7mb 26f
9:42pm 14 16 mph 1026.8mb 26f
9:36pm 15 17 mph 1026.8mb 26f
9:30pm 11 15 mph 1026.8mb 27f
9:24pm 14 17 mph 1026.8mb 26f
9:18pm 14 17 mph 1026.8mb 27f
9:12pm 13 16 mph 1026.9mb 27f
9:06pm 14 16 mph 1027mb 27f
9:00pm 14 16 mph 1027mb 27f
8:54pm 13 16 mph 1027mb 27f
8:48pm 13 16 mph 1026.9mb 27f
8:42pm 14 16 mph 1026.9mb 26f
8:36pm 13 16 mph 1026.8mb 27f
8:30pm 14 17 mph 1026.7mb 27f
8:24pm 14 16 mph 1026.7mb 27f
8:18pm 15 18 mph 1026.7mb 26f
8:12pm 14 18 mph 1026.6mb 27f
8:06pm 13 17 mph 1026.6mb 27f
8:00pm 14 18 mph 1026.5mb 27f
7:54pm 15 17 mph 1026.6mb 27f
7:48pm 15 18 mph 1026.6mb 27f
7:42pm 14 16 mph 1026.6mb 27f
7:36pm 14 17 mph 1026.6mb 27f
7:30pm 14 17 mph 1026.7mb 27f
7:24pm 13 16 mph 1026.8mb 27f
7:18pm 11 16 mph 1026.9mb 27f
7:12pm 13 16 mph 1026.9mb 27f
7:06pm 13 17 mph 1026.9mb 27f
7:00pm 14 17 mph 1026.9mb 27f
6:54pm 14 18 mph 1026.9mb 27f
6:48pm 13 16 mph 1026.9mb 27f
6:42pm 14 17 mph 1026.9mb 27f
6:36pm 14 17 mph 1026.9mb 27f
6:30pm 14 17 mph 1026.9mb 27f
6:24pm 13 16 mph 1026.8mb 27f
6:18pm 14 17 mph 1026.8mb 27f
6:12pm 14 17 mph 1026.7mb 27f
6:06pm 14 16 mph 1026.7mb 27f
6:00pm 13 16 mph 1026.7mb 27f
5:54pm 14 16 mph 1026.7mb 27f